VA3DLF Weather Reports


time (UTC)temp
C
wind
direction
speed
KPH
gust
KPH
rain 1hr
cm
rain 24hr
cm
rain mn
cm
humidity
%
barometer
mb
20180419150730 0 340 11.3 11.3 0.00 0.00 0.00
20180419150236 0 345 16.1 9.7 0.00 0.00 0.00
20180419145730 1 41 9.7 11.3 0.00 0.00 0.00
20180419145228 0 6 9.7 9.7 0.00 0.00 0.00
20180419144229 0 359 8.0 9.7 0.00 0.00 0.00
20180419143727 0 350 9.7 6.4 0.00 0.00 0.00
20180419143227 0 15 9.7 9.7 0.00 0.00 0.00
20180419142728 0 346 8.0 9.7 0.00 0.00 0.00
20180419142225 0 315 11.3 9.7 0.00 0.00 0.00
20180419141725 0 346 9.7 6.4 0.00 0.00 0.00
20180419141226 0 8 9.7 8.0 0.00 0.00 0.00
20180419140723 0 336 9.7 12.9 0.00 0.00 0.00
20180419135724 0 17 11.3 8.0 0.00 0.00 0.00
20180419135222 0 359 9.7 6.4 0.00 0.00 0.00
20180419134722 0 359 11.3 12.9 0.00 0.00 0.00
20180419134223 0 359 11.3 8.0 0.00 0.00 0.00
20180419133221 0 336 8.0 6.4 0.00 0.00 0.00
20180419132722 0 20 8.0 4.8 0.00 0.00 0.00
20180419132219 0 15 9.7 6.4 0.00 0.00 0.00
20180419131719 0 332 8.0 4.8 0.00 0.00 0.00
20180419131218 0 325 8.0 6.4 0.00 0.00 0.00
20180419130716 0 32 6.4 3.2 0.00 0.00 0.00
20180419130217 0 332 11.3 9.7 0.00 0.00 0.00
20180419125717 0 359 11.3 14.5 0.00 0.00 0.00
20180419125215 0 1 9.7 9.7 0.00 0.00 0.00
20180419124715 0 359 11.3 9.7 0.00 0.00 0.00
20180419123212 0 339 8.0 11.3 0.00 0.00 0.00
20180419122210 0 27 9.7 9.7 0.00 0.00 0.00
20180419121211 0 25 8.0 4.8 0.00 0.00 0.00
20180419115208 0 14 6.4 8.0 0.00 0.00 0.00
20180419114207 0 1 8.0 12.9 0.00 0.00 0.00
20180419112202 -1 359 3.2 4.8 0.00 0.00 0.00
20180419111203 -1 4 6.4 4.8 0.00 0.00 0.00
20180419105701 -1 335 6.4 8.0 0.00 0.00 0.00
20180419105158 -1 345 8.0 8.0 0.00 0.00 0.00
20180419104159 -1 345 8.0 6.4 0.00 0.00 0.00
20180419103657 0 353 6.4 6.4 0.00 0.00 0.00
20180419102657 -1 15 8.0 6.4 0.00 0.00 0.00
20180419102155 -1 342 9.7 3.2 0.00 0.00 0.00
20180419100653 -1 21 8.0 6.4 0.00 0.00 0.00
20180419095654 0 336 4.8 4.8 0.00 0.00 0.00
20180419095152 0 3 9.7 8.0 0.00 0.00 0.00
20180419094152 0 345 8.0 8.0 0.00 0.00 0.00
20180419093651 0 333 6.4 6.4 0.00 0.00 0.00
20180419092651 0 321 6.4 11.3 0.00 0.00 0.00
20180419092148 0 3 6.4 11.3 0.00 0.00 0.00
20180419090648 0 359 3.2 4.8 0.00 0.00 0.00
20180419085647 0 356 6.4 6.4 0.00 0.00 0.00
20180419084646 0 21 1.6 3.2 0.00 0.00 0.00
20180419084146 0 32 6.4 4.8 0.00 0.00 0.00
20180419083642 0 15 4.8 6.4 0.00 0.00 0.00
20180419082643 0 52 3.2 1.6 0.00 0.00 0.00
20180419082142 0 6 3.2 3.2 0.00 0.00 0.00
20180419081641 0 359 4.8 8.0 0.00 0.00 0.00
20180419080639 0 342 4.8 6.4 0.00 0.00 0.00
20180419075640 0 1 6.4 6.4 0.00 0.00 0.00
20180419075138 0 13 3.2 8.0 0.00 0.00 0.00
20180419074638 0 332 6.4 4.8 0.00 0.00 0.00
20180419074139 0 339 9.7 11.3 0.00 0.00 0.00
20180419073636 0 346 6.4 11.3 0.00 0.00 0.00
20180419072135 0 3 4.8 4.8 0.00 0.00 0.00
20180419071635 0 15 8.0 6.4 0.00 0.00 0.00
20180419070633 0 359 8.0 8.0 0.00 0.00 0.00
20180419065634 0 28 12.9 11.3 0.00 0.00 0.00
20180419065133 0 28 11.3 11.3 0.00 0.00 0.00
20180419064633 0 20 8.0 6.4 0.00 0.00 0.00
20180419064133 0 10 11.3 8.0 0.00 0.00 0.00
20180419063630 0 37 12.9 16.1 0.00 0.00 0.00
20180419063133 0 37 9.7 8.0 0.00 0.00 0.00
20180419061629 0 38 6.4 8.0 0.00 0.00 0.00
20180419061129 0 24 4.8 6.4 0.00 0.00 0.00
20180419055628 0 42 8.0 8.0 0.00 0.00 0.00
20180419055126 0 7 9.7 11.3 0.00 0.00 0.00
20180419054127 0 30 6.4 4.8 0.00 0.00 0.00
20180419051621 1 30 6.4 8.0 0.00 0.00 0.00
20180419050619 1 329 11.3 8.0 0.00 0.00 0.00
20180419045619 1 359 8.0 6.4 0.00 0.00 0.00
20180419045117 1 295 4.8 3.2 0.00 1.52 0.00
20180419044617 1 343 6.4 11.3 0.00 1.52 0.00
20180419044117 1 301 3.2 4.8 0.00 1.52 0.00
20180419042113 1 346 6.4 8.0 0.00 1.52 0.00
20180419041114 1 329 9.7 6.4 0.00 1.52 0.00
20180419040112 1 318 6.4 4.8 0.00 1.52 0.00
20180419035110 1 309 4.8 4.8 0.00 1.52 0.00
20180419034609 1 343 6.4 4.8 0.00 1.52 0.00
20180419034110 1 322 6.4 3.2 0.00 1.52 0.00
20180419033607 1 312 8.0 8.0 0.00 1.52 0.00
20180419033108 1 329 6.4 9.7 0.00 1.52 0.00
20180419032608 1 321 8.0 12.9 0.00 1.52 0.00
20180419032106 1 311 11.3 6.4 0.00 1.52 0.00
20180419031607 1 323 9.7 12.9 0.00 1.52 0.00
20180419031107 1 300 11.3 11.3 0.00 1.52 0.00
20180419030604 1 285 9.7 8.0 0.00 1.52 0.00
20180419025605 1 321 11.3 8.0 0.00 1.52 0.00
20180419024602 1 314 9.7 9.7 0.00 1.52 0.00
20180419023600 1 298 9.7 9.7 0.00 1.52 0.00
20180419022600 1 291 8.0 9.7 0.00 1.52 0.00
20180419022058 2 322 8.0 9.7 0.00 1.52 0.00
20180419021558 2 323 9.7 8.0 0.00 1.52 0.00
20180419015556 2 301 12.9 12.9 0.00 1.52 0.00
20180419015054 2 302 12.9 14.5 0.00 1.52 0.00
20180419013551 2 323 14.5 9.7 0.00 1.52 0.00
20180419012552 2 318 12.9 11.3 0.00 1.52 0.00
20180419012050 2 307 14.5 12.9 0.00 1.52 0.00
20180419011051 2 308 12.9 11.3 0.00 1.52 0.00
20180419010048 2 300 12.9 12.9 0.00 1.52 0.00
20180419005548 2 298 14.5 16.1 0.00 1.52 0.00
20180419005044 2 285 6.4 8.0 0.00 1.52 0.00
20180419004544 2 281 8.0 11.3 0.00 1.52 0.00
20180419003542 2 293 9.7 12.9 0.00 1.52 0.00
20180419003043 2 297 6.4 12.9 0.00 1.52 0.00
20180419002543 2 278 8.0 8.0 0.00 1.52 0.00
20180419001541 2 274 11.3 11.3 0.00 1.52 0.00
20180419001042 2 284 9.7 11.3 0.00 1.52 0.00
20180419000540 2 291 12.9 12.9 0.00 1.52 0.00
20180419000040 2 255 11.3 12.9 0.00 1.52 0.00
20180418235540 2 288 14.5 16.1 0.00 1.52 0.00
20180418235038 2 243 12.9 11.3 0.00 1.52 0.00
20180418234538 2 276 12.9 19.3 0.00 1.52 0.00
20180418234039 2 250 9.7 9.7 0.00 1.52 0.00
20180418233536 2 257 12.9 11.3 0.00 1.52 0.00
20180418233037 2 252 9.7 12.9 0.00 1.52 0.00
20180418232537 3 273 9.7 9.7 0.00 1.52 0.00
20180418232034 3 264 9.7 9.7 0.00 1.52 0.00
20180418231534 3 253 14.5 11.3 0.00 1.52 0.00
20180418231035 3 280 16.1 12.9 0.00 1.52 0.00
20180418230532 3 256 14.5 14.5 0.00 1.52 0.00
20180418230033 3 256 14.5 8.0 0.00 1.52 0.00
20180418225534 3 264 11.3 9.7 0.00 1.52 0.00
20180418224532 3 293 16.1 16.1 0.00 1.52 0.00
20180418224032 3 271 16.1 14.5 0.00 1.52 0.00
20180418223030 4 302 19.3 14.5 0.00 1.52 0.00
20180418222530 4 277 20.9 17.7 0.00 1.52 0.00
20180418222028 4 281 19.3 17.7 0.00 1.52 0.00
20180418221527 4 276 14.5 12.9 0.00 1.52 0.00
20180418221028 4 298 17.7 11.3 0.00 1.52 0.00
20180418220525 4 287 16.1 17.7 0.00 1.52 0.00
20180418220026 5 290 16.1 24.1 0.00 1.52 0.00
20180418215527 5 288 14.5 12.9 0.00 1.52 0.00
20180418214525 4 305 17.7 17.7 0.00 1.52 0.00
20180418214025 4 293 16.1 20.9 0.00 1.52 0.00
20180418213523 5 283 17.7 20.9 0.00 1.52 0.00
20180418213024 5 278 14.5 17.7 0.00 1.52 0.00
20180418212526 5 308 9.7 11.3 0.00 1.52 0.00
20180418212023 5 298 14.5 14.5 0.00 1.52 0.00
20180418211523 5 295 17.7 16.1 0.00 1.52 0.00
20180418211023 5 285 17.7 17.7 0.00 1.52 0.00
20180418210021 5 290 19.3 16.1 0.00 1.52 0.00
20180418205522 5 298 14.5 17.7 0.00 1.52 0.00
20180418205019 5 301 16.1 12.9 0.00 1.52 0.00
20180418204520 5 290 16.1 16.1 0.00 1.52 0.00
20180418204020 5 270 11.3 14.5 0.00 1.52 0.00
20180418203018 5 305 19.3 9.7 0.00 1.52 0.00
20180418201516 5 311 22.5 16.1 0.00 1.52 0.00
20180418201017 5 281 14.5 16.1 0.00 1.52 0.00
20180418200515 5 305 17.7 16.1 0.00 1.52 0.00
20180418200015 5 308 20.9 22.5 0.00 1.52 0.00
20180418195516 5 294 17.7 24.1 0.00 1.52 0.00
20180418195014 5 302 20.9 19.3 0.00 1.52 0.00
20180418194015 5 340 14.5 9.7 0.00 1.52 0.00
20180418193512 5 264 19.3 27.4 0.00 1.52 0.00
20180418193013 5 294 24.1 17.7 0.00 1.52 0.00
20180418192514 5 318 20.9 16.1 0.00 1.52 0.00
20180418190510 5 307 17.7 16.1 0.00 1.52 0.00
20180418190010 5 307 19.3 25.7 0.00 1.52 0.00
20180418185511 5 290 19.3 25.7 0.00 1.52 0.00
20180418185009 5 301 14.5 12.9 0.00 1.52 0.00
20180418184010 5 287 16.1 12.9 0.00 1.52 0.00
20180418183507 6 319 19.3 22.5 0.00 1.52 0.00
20180418183008 5 290 22.5 22.5 0.00 1.52 0.00
20180418182508 5 302 16.1 24.1 0.00 1.52 0.00
20180418182005 5 325 20.9 16.1 0.00 1.52 0.00
20180418181506 6 300 16.1 17.7 0.00 1.52 0.00
20180418180504 6 300 19.3 19.3 0.00 1.52 0.00
20180418180004 5 297 16.1 20.9 0.00 1.52 0.00
20180418175505 5 304 16.1 20.9 0.00 1.52 0.00
20180418175002 5 288 24.1 19.3 0.00 1.52 0.00
20180418174004 5 300 20.9 17.7 0.00 1.52 0.00
20180418173501 5 300 17.7 12.9 0.00 1.52 0.00
20180418173003 5 300 22.5 27.4 0.00 1.52 0.00
20180418172503 6 264 22.5 19.3 0.00 1.52 0.00
20180418172000 6 291 25.7 24.1 0.00 1.52 0.00
20180418171459 6 277 17.7 16.1 0.00 1.52 0.00
20180418170457 6 287 20.9 24.1 0.00 1.52 0.00
20180418165458 6 285 24.1 22.5 0.00 1.52 0.00
20180418164457 6 316 14.5 22.5 0.00 1.52 0.00
20180418163957 6 309 20.9 14.5 0.00 1.52 0.00
20180418162955 7 285 19.3 25.7 0.00 1.52 0.00
20180418161954 6 291 24.1 29.0 0.00 1.52 0.00
20180418161454 6 316 22.5 29.0 0.00 1.52 0.00
20180418160955 6 293 20.9 27.4 0.00 1.52 0.00
20180418160452 5 301 17.7 30.6 0.00 1.52 0.00
20180418155953 5 285 14.5 17.7 0.00 1.52 0.00
20180418155454 5 298 17.7 16.1 0.00 1.52 0.00
20180418154951 5 309 16.1 17.7 0.00 1.52 0.00
20180418154452 5 311 20.9 22.5 0.00 1.52 0.00
20180418153952 5 322 19.3 17.7 0.00 1.52 0.00
20180418153450 5 305 14.5 25.7 0.00 1.52 0.00
20180418152951 5 302 17.7 20.9 0.00 1.52 0.00
20180418152451 5 288 24.1 17.7 0.00 1.52 0.00